User: anonymous   Login
Location: Bothwell
(42.3833°S, 147.0000°E)
Time: 00:14:50
(UTC+10:00)
Language:

AO-85 - Orbit

View from above orbital plane
View from above orbital plane
View from above satellite
View from above satellite

Ground track
Ground track

The orbit data is extracted from the following two-line orbital elements,

1 40967U 15058D   22271.53123398  .00001710  00000-0  19866-3 0  4945
2 40967  64.7727 118.2513 0181636 166.6486 193.9574 14.77747615 75890
Epoch (UTC): 28 September 2022 12:44:58
Eccentricity: 0.0181636
inclination: 64.7727°
perigee height: 509 km
apogee height: 764 km
right ascension of ascending node: 118.2513°
argument of perigee: 166.6486°
revolutions per day: 14.77747615
mean anomaly at epoch: 193.9574°
orbit number at epoch: 7589

The dashed part of the orbit path shows where the satellite is in the earth's shadow,  

DLR